Home   Weather   Decatur   Past weeks

Flag for USA Past Weather in Decatur, Illinois, USA — Yesterday and Last 2 Weeks

Now
55 °F

Thunderstorms. Fog.


Feels Like: 54 °F
Forecast: 55 / 61 °F
Wind: 6 mph from East

Location: Decatur Airport

Current Time: Apr 29, 2017 at 2:52:29 am

Latest Report: Apr 29, 2017 at 2:23 am


Visibility: 6 mi

Pressure: 29.92 "Hg

Humidity: 100%

Dew Point: 55 °F

Location of DecaturLocation

Past Weather in Decatur — Graph

°F

Decatur Temperature Yesterday

Maximum temperature yesterday: 56 °F (at 11:54 am)
Minimum temperature yesterday: 47 °F (at 2:54 am)
Average temperature yesterday: 53 °F

High & Low Weather Summary for the Past Weeks

 TemperatureHumidityPressure
High81 °F (Apr 14, 1:54 pm)100% (Apr 14, 3:54 am)30.19 "Hg (Apr 14, 3:54 am)
Low36 °F (Apr 23, 4:54 am)19% (Apr 24, 3:54 pm)29.34 "Hg (Apr 27, 2:54 am)
Average60 °F70%29.93 "Hg
* Reported Apr 14 1:54 am — Apr 29 1:28 am, Decatur, Weather by CustomWeather, © 2017

Note: Actual official high and low records may vary slightly from our data, if they occured in-between our weather recording intervals... More about our weather records

Advertising

Decatur Weather History for the Previous 24 Hours

Scroll right to see more
 ConditionsComfort  
Time TempWeatherWind HumidityBarometerVisibility
1:28 am
Sat, Apr 29
56 °FOvercast.14 mph100%29.90 "Hg8 mi
1:04 am56 °FFog.9 mph100%29.90 "Hg6 mi
11:54 pm
Fri, Apr 28
56 °FOvercast.9 mph100%29.91 "Hg7 mi
10:54 pm56 °FOvercast.5 mph100%29.90 "Hg10 mi
9:54 pm56 °FOvercast.3 mph100%29.90 "Hg9 mi
8:54 pm56 °FOvercast.5 mph100%29.88 "Hg10 mi
7:54 pm56 °FOvercast.7 mph100%29.84 "Hg10 mi
6:54 pm56 °FMostly cloudy.14 mph100%29.81 "Hg7 mi
5:54 pm55 °FMostly cloudy.10 mph100%29.83 "Hg9 mi
4:54 pm55 °FLight rain. Mostly cloudy.12 mph96%29.83 "Hg7 mi
4:07 pm54 °FLight rain. Mostly cloudy.13 mph100%29.80 "Hg10 mi
3:07 pm54 °FLight rain. Mostly cloudy.9 mph97%29.81 "Hg8 mi
2:15 pm54 °FThundershowers. Fog.14 mph97%29.82 "Hg6 mi
1:54 pm55 °FLight rain. Overcast.13 mph96%29.83 "Hg10 mi
12:54 pm55 °FLight rain. Mostly cloudy.14 mph93%29.86 "Hg7 mi
11:54 am56 °FOvercast.17 mph90%29.89 "Hg10 mi
10:54 am54 °FPartly sunny.15 mph90%29.89 "Hg10 mi
9:54 am52 °FOvercast.9 mph93%29.90 "Hg10 mi
8:54 am52 °FOvercast.8 mph89%29.91 "Hg10 mi
7:54 am51 °FOvercast.12 mph89%29.91 "Hg10 mi
6:54 am49 °FPartly sunny.12 mph97%29.89 "Hg10 mi
5:54 am48 °FPassing clouds.6 mph96%29.91 "Hg10 mi
4:54 am48 °FClear.3 mph96%29.92 "Hg10 mi
3:54 am48 °FClear.7 mph93%29.90 "Hg10 mi
2:54 am47 °FClear.7 mph97%29.87 "Hg10 mi
Weather by CustomWeather, © 2017

See weather overviewHow to use our weather pages